This is the latest recevied weather packets stored in our database for station/object KD5FHA. If no packets are shown the sender has not sent any weather packets the latest 10 day(s).
| Time | Temp. | Humidity | Pressure | Rain* | Wind** | Luminosity | Snow |
|---|---|---|---|---|---|---|---|
| 1777853202 | 25.56° C | 38% | 1016.7 hPa | 0 mm | - | 74 W/m² | - |
| 1777852899 | 25.56° C | 38% | 1016.7 hPa | 0 mm | - | 76 W/m² | - |
| 1777852597 | 25.56° C | 39% | 1016.9 hPa | 0 mm | - | 110 W/m² | - |
| 1777852293 | 25.56° C | 37% | 1016.8 hPa | 0 mm | - | 146 W/m² | - |
| 1777851992 | 25.56° C | 37% | 1016.8 hPa | 0 mm | - | 65 W/m² | - |
| 1777851689 | 25.56° C | 36% | 1016.9 hPa | 0 mm | - | 113 W/m² | - |
| 1777851386 | 26.11° C | 36% | 1016.8 hPa | 0 mm | - | 97 W/m² | - |
| 1777851082 | 26.11° C | 36% | 1017 hPa | 0 mm | - | 204 W/m² | - |
| 1777850779 | 26.11° C | 36% | 1017 hPa | 0 mm | - | 175 W/m² | - |
| 1777850476 | 26.67° C | 35% | 1017.2 hPa | 0 mm | - | 229 W/m² | - |
| 1777850174 | 26.67° C | 35% | 1017.1 hPa | 0 mm | - | 309 W/m² | - |
| 1777849870 | 26.11° C | 36% | 1017.1 hPa | 0 mm | - | 328 W/m² | - |
| 1777849568 | 26.67° C | 34% | 1017.1 hPa | 0 mm | - | 315 W/m² | - |
| 1777849264 | 26.67° C | 35% | 1017.2 hPa | 0 mm | - | 241 W/m² | - |
| 1777848962 | 26.67° C | 35% | 1017.3 hPa | 0 mm | - | 392 W/m² | - |
| 1777848656 | 26.67° C | 36% | 1017.2 hPa | 0 mm | - | 397 W/m² | - |
| 1777848355 | 26.67° C | 36% | 1017 hPa | 0 mm | - | 439 W/m² | - |
| 1777848052 | 27.22° C | 36% | 1017.1 hPa | 0 mm | - | 464 W/m² | - |
| 1777847750 | 26.67° C | 36% | 1017 hPa | 0 mm | - | 476 W/m² | - |
| 1777847445 | 27.22° C | 35% | 1017.2 hPa | 0 mm | - | 460 W/m² | - |
| 1777847143 | 26.11° C | 34% | 1017.3 hPa | 0 mm | - | 267 W/m² | - |
| 1777846841 | 26.67° C | 33% | 1017.3 hPa | 0 mm | - | 381 W/m² | - |
| 1777846539 | 26.67° C | 33% | 1017.3 hPa | 0 mm | - | 352 W/m² | - |
| 1777846236 | 27.22° C | 34% | 1017.3 hPa | 0 mm | - | 434 W/m² | - |
| 1777845932 | 27.22° C | 34% | 1017.4 hPa | 0 mm | - | 493 W/m² | - |
* Rain latest hour (hover to see other rain measurements)
** Current wind speed in m/s (hover to see current wind gust speed)